Regional Weather Roundup
Issued by NWS

Home | Current Version | Previous Version | Text Only | Print | Product List | Glossary On
Versions: 1 2 3 4 5 6 7 8 9 10 11 12 13 14 15 16 17 18 19 20 21 22 23 24 25 26 27 28 29 30 31 32 33 34 35 36 37 38 39 40 41 42 43 44 45 46 47 48 49 50
253
ASUS42 KTBW 252217
RWRFL
FLORIDA REGIONAL WEATHER ROUNDUP
NATIONAL WEATHER SERVICE TAMPA BAY RUSKIN FL
600 PM EDT WED APR 25 2018

NOTE: "FAIR" INDICATES FEW OR NO CLOUDS BELOW 12,000 FEET WITH NO
SIGNIFICANT WEATHER AND/OR OBSTRUCTIONS TO VISIBILITY.

FLZ001>010-012>015-112-114-115-252300-
PANHANDLE FLORIDA

CITY           SKY/WX    TMP DP  RH WIND       PRES   REMARKS
PENSACOLA      FAIR      75  61  61 S9        29.92S
PENSACOLA NAS  FAIR      79  56  45 N9        29.91F
MILTON NAS     FAIR      76  55  48 N12       29.92
CRESTVIEW      FAIR      78  54  43 NW10      29.93S
DUKE FIELD     MOSUNNY   78  54  43 N12G17    29.91S
VALPARAISO     MOSUNNY   77  59  53 W13       29.89F
MARY ESTHER    MOSUNNY   73  60  63 SW13G18   29.90S
TRI COUNTY     FAIR      78  57  48 NW7       29.91S
PANAMA CITY    FAIR      75  60  59 W15       29.89S
TYNDALL AFB    FAIR      72  61  68 W20       29.91S
APALACHICOLA   FAIR      75  61  61 W15       29.89F

STATION/POSITION SKY/WX   TEMP    WIND        PRES    WAVE   SWELL
                          AIR SEA DIR/SP/G            HT/PER HT/PER
                          (F)     (DEG/KT/KT) (MB)    (FT/S) (FT/S)
30.1N   87.6W              69     260/ 16/ 17 1013.5F   2/ 3
29.2N   88.2W                 74  290/  8/ 10 1014.7F   1/ 4
28.8N   86.0W              70 74  300/ 12/ 16 1013.5F   2/ 4
PANAMA CITY BEAC           69 72  270/ 15/ 18 1013.3R
TOWER C                    68     280/ 20/ 21 1012.8F

$$
FLZ011-016>038-118-127-128-134-139-239-252300-
NORTH FLORIDA

CITY           SKY/WX    TMP DP  RH WIND       PRES   REMARKS
MARIANNA       FAIR      78  56  46 NW10      29.89S
TALLAHASSEE    FAIR      79  52  38 N12       29.87R
PERRY          FAIR      75  60  58 SW10      29.88S
LIVE OAK       SUNNY     79  54  41 W7G15     29.86S
CROSS CITY     FAIR      74  58  57 W12G20    29.89R
LAKE CITY      FAIR      77  52  41 NW10      29.85S
GAINESVILLE    FAIR      78  54  43 W6        29.87S
WILLISTON      SUNNY     77  59  53 SW8G15    29.88R
PALATKA        FAIR      81  55  41 W12       29.85S
MAYPORT NAS    FAIR      80  55  42 W9G16     29.82R
JACKSONVILLE   FAIR      80  55  42 W12G17    29.82R
JAX NAS        FAIR      79  55  43 W12       29.83R
JAX CECIL      SUNNY     79  55  44 W8G17     29.83R SMOKE
FERNANDINA BEA FAIR      81  53  38 NW9       29.81R
ST AUGUSTINE   FAIR      79  55  43 W8        29.84S
PALM COAST     MOSUNNY   79  55  44 W8        29.84S

STATION/POSITION SKY/WX   TEMP    WIND        PRES    WAVE   SWELL
                          AIR SEA DIR/SP/G            HT/PER HT/PER
                          (F)     (DEG/KT/KT) (MB)    (FT/S) (FT/S)
SHELL POINT      NOT AVBL
KEATON BEACH               69     240/ 18/ 19 1012.3R
CEDAR KEY                  71     270/ 10/ 13 1012.7S
FERNANDINA                 79 68  260/  8/ 11 1010.5R
30.7N   81.3W                 70                N/A     2/ 9
MAYPORT                    78 67  260/ 11/ 14 1010.0R
31.4N   80.9W              69 67  190/ 10/ 12 1008.7R   3/ 9   3/ 9
ST AUGUSTINE               79 68  270/  8/ 10 1010.9R

$$
FLZ040-043>046-052-053-057-058-063-144-252300-
INTERIOR CENTRAL FLORIDA

CITY           SKY/WX    TMP DP  RH WIND       PRES   REMARKS
OCALA          FAIR      76  59  55 W10       29.88R
LEESBURG       FAIR      77  60  55 W9        29.87S
SANFORD        FAIR      79  55  43 W10       29.85S
ORLANDO EXEC   FAIR      81  54  39 W15       29.86S
ORLANDO INTL   FAIR      82  53  36 W14G21    29.85F
KISSIMMEE      FAIR      81  54  39 W10       29.87S
WINTER HAVEN   FAIR      79  53  40 W10G18    29.89S
LAKELAND       SUNNY     79  54  41 NW12G21   29.90R
SEBRING        FAIR      82  52  35 NW14G21   29.88R
OKEECHOBEE     PTSUNNY   81  57  44 W8        29.87S

$$
FLZ041-047-054-059-064-141-147-252300-
EAST CENTRAL FLORIDA

CITY           SKY/WX    TMP DP  RH WIND       PRES   REMARKS
ORMOND BEACH   MOSUNNY   77  55  47 W12       29.85S
DAYTONA BEACH  FAIR      79  57  46 W8        29.85S
DELAND         FAIR      79  54  41 W9        29.85S
NEW SMYRNA BEA MOSUNNY   81  55  41 W8        29.85S
JFK SPACE CTR  FAIR      82  55  38 W8        29.83S
TITUSVILLE     MOSUNNY   82  54  36 W8        29.85S
CAPE CANAVERAL FAIR      82  57  41 W8        29.83S
PATRICK AFB    FAIR      83  57  40 W15       29.84S
MELBOURNE      FAIR      82  58  43 W12       29.84F
VERO BEACH     PTSUNNY   81  57  43 W12       29.86S
FT PIERCE      FAIR      81  59  47 W8        29.86S
STUART         MOSUNNY   84  57  39 W12       29.88F

STATION/POSITION SKY/WX   TEMP    WIND        PRES    WAVE   SWELL
                          AIR SEA DIR/SP/G            HT/PER HT/PER
                          (F)     (DEG/KT/KT) (MB)    (FT/S) (FT/S)
28.5N   80.2W              74 75  160/ 10/ 12 1010.6F   4/ 8   3/ 8
28.9N   78.5W              74 76  240/ 10/ 14 1011.7R   5/ 8   5/ 8
TRIDENT PIER               81 76  240/  8/ 12 1011.8F
28.4N   80.5W                 76                N/A     2/ 9
27.5N   80.2W                 76                N/A     3/ 8   2/11

$$
FLZ050-056-061-142-242-148-248-149-249-151-251-155-255-
160-260-252300-
WEST CENTRAL FLORIDA

CITY           SKY/WX    TMP DP  RH WIND       PRES   REMARKS
CRYSTAL RIVER  FAIR      72  57  60 W12G18    29.91S
INVERNESS      FAIR      73  59  60 W7        29.90S
BROOKSVILLE    FAIR      74  57  55 W15       29.91S
CLEARWATER AIR FAIR      70  55  60 NW10      29.92R
ST PETE CLEARW FAIR      77  57  50 NW14      29.92R
TAMPA INTL     FAIR      75  56  51 W14       29.91S
TAMPA EXEC     FAIR      77  55  47 W3        29.91S
PLANT CITY     FAIR      79  54  41 NW9       29.91S
MACDILL AFB    FAIR      74  57  54 NW9       29.91S
PETER O KNIGHT FAIR      73  57  56 W8        29.91S
ST PETERSBURG  FAIR      74  58  57 NW10G21   29.89S
SARASOTA       FAIR      74  59  59 W12       29.91S
VENICE         FAIR      77  57  50 NW10      29.93S

STATION/POSITION SKY/WX   TEMP    WIND        PRES    WAVE   SWELL
                          AIR SEA DIR/SP/G            HT/PER HT/PER
                          (F)     (DEG/KT/KT) (MB)    (FT/S) (FT/S)
27.3N   84.2W                 74                N/A     2/ 5
CLEARWATER BEACH           70 78  290/ 11/ 13 1013.3S
MIDDLE TAMPA BAY           70     310/ 13/ 15 1013.0F
VENICE                     73 78  300/ 11/ 13 1013.5R

$$
FLZ066-069-070-075>078-162-262-165-265-252300-
SOUTHWEST FLORIDA AND KEYS

CITY           SKY/WX    TMP DP  RH WIND       PRES   REMARKS
PUNTA GORDA    FAIR      81  56  42 W14       29.92R
FT MYERS       FAIR      80  61  52 W15       29.90S
SOUTHWEST INTL FAIR      79  61  53 NW9       29.91R
NAPLES         FAIR      78  64  61 W13       29.92S
MARCO ISLAND   FAIR      78  63  59 W12G18    29.94R
IMMOKALEE      FAIR      82  57  42 W13       29.91R
MARATHON       FAIR      82  66  58 NW7       29.92F
KEY WEST NAS   FAIR      80  66  62 N10       29.93
KEY WEST INTL  FAIR      81  68  64 VRB7      29.93F

STATION/POSITION SKY/WX   TEMP    WIND        PRES    WAVE   SWELL
                          AIR SEA DIR/SP/G            HT/PER HT/PER
                          (F)     (DEG/KT/KT) (MB)    (FT/S) (FT/S)
NAPLES                     75 82              1013.2R
26.0N   85.6W              75 80  340/  4/  6 1013.4
DRY TORTUGAS               77      10/  3/  3 1013.9F
SAND KEY                   76                 1013.6F
SOMBRERO KEY               77     270/  6/  8 1012.8F
LONG KEY                   77 85  310/  7/ 10 1013.1F
MOLASSES REEF              78 79  240/ 10/ 12 1013.2F

$$
FLZ067-068-071>074-168-172>174-252300-
SOUTHEAST FLORIDA

CITY           SKY/WX    TMP DP  RH WIND       PRES   REMARKS
W PALM BEACH   FAIR      81  60  48 W9        29.88S
BOCA RATON     MOSUNNY   77  64  65 SE14      29.89
FT LAUDER-EXEC FAIR      80  64  58 SE14      29.88S
FT LAUDERDALE  FAIR      78  66  66 SE12      29.88S
POMPANO BEACH  FAIR      78  65  63 S13       29.89S
PEMBROKE PINES FAIR      83  64  52 SE13G20   29.89S
OPA LOCKA      FAIR      83  66  56 SE14      29.88F
MIAMI          FAIR      83  67  58 S9G18     29.88S
WEST KENDALL   FAIR      84  56  38 SW16      29.89R
HOMESTEAD      FAIR      84  60  44 W14       29.88S

STATION/POSITION SKY/WX   TEMP    WIND        PRES    WAVE   SWELL
                          AIR SEA DIR/SP/G            HT/PER HT/PER
                          (F)     (DEG/KT/KT) (MB)    (FT/S) (FT/S)
PORT EVERGLADES            77     140/  9/ 13 1012.2
VIRGINIA KEY                      140/ 11/ 14   N/A
LAKE WORTH                 79 79  230/  8/ 13 1012.7R
FOWEY ROCKS                78 79  170/ 18/ 19 101



USA.gov is the U.S. government's official web portal to all federal, state and local government web resources and services.